Regional Weather Roundup
Issued by NWS

Home | Current Version | Previous Version | Text Only | Print | Product List | Glossary Off
Versions: 1 2 3 4 5 6 7 8 9 10 11 12 13 14 15 16 17 18 19 20 21 22 23 24 25 26 27 28 29 30 31 32 33 34 35 36 37 38 39 40 41 42 43 44 45 46 47 48 49 50

000
ASUS43 KIND 051359
RWRIN

WEATHER ROUNDUP FOR INDIANA
NATIONAL WEATHER SERVICE INDIANAPOLIS IN
1000 AM EDT TUE MAY 05 2015

NOTE: "FAIR" INDICATES FEW OR NO CLOUDS BELOW 12,000 FEET WITH NO
SIGNIFICANT WEATHER AND/OR OBSTRUCTIONS TO VISIBILITY.

* - STATION DOES NOT REPORT WEATHER SUCH AS PRECIPITATION OR FOG.

+ - STATION NOT QUALITY CONTROLLED BY THE NATIONAL WEATHER SERVICE.
    USE DATA WITH CAUTION...ESPECIALLY DEWPOINT AND RELATIVE
    HUMIDITY OBSERVATIONS.

INZ001>003-010>013-019-020-051500-
NORTHWEST INDIANA

CITY           SKY/WX    TMP DP  RH WIND       PRES   REMARKS
GARY /AIRPORT/ CLOUDY    50 N/A N/A NE6       30.21S FOG

$$

LMZ046-743>745-051500-
SOUTHERN LAKE MICHIGAN

STATION/POSITION TIME  TEMP    WIND        PRES    WAVE
                       AIR SEA DIR/SP/G            HT
                 (UTC) (F)     (DEG/KT/KT) (MB)    (FT)
BURNS HARBOR     1300   50      80/ 13/ 14 1023.0F
MICHIGAN CITY    1300   48      10/ 10/ 11   N/A
5NW MICH CITY    1300   49 49   70/ 12/ 16   N/A     1

$$

INZ004-005-014>016-021>024-051500-
NORTH CENTRAL INDIANA

CITY           SKY/WX    TMP DP  RH WIND       PRES   REMARKS
ELKHART        RAIN      61  61 100 SE5       30.22F
GOSHEN         LGT RAIN  62  61  96 SE9       30.21F FOG
SOUTH BEND     CLOUDY    62  60  93 E3        30.21F FOG

$$

INZ006>009-017-018-025>027-051500-
NORTHEAST INDIANA

CITY           SKY/WX    TMP DP  RH WIND       PRES   REMARKS
ANGOLA *+      CLOUDY    54  54 100 E7        30.27R
FORT WAYNE     CLOUDY    64  61  90 CALM      30.26R FOG

$$

INZ028-029-035-036-043>045-051>053-051500-
WEST CENTRAL INDIANA

CITY           SKY/WX    TMP DP  RH WIND       PRES   REMARKS
GREENCASTLE +  PTSUNNY   68  52  56 SW3       30.24R
LAFAYETTE      PTSUNNY   68  59  73 S3        30.21R
TERRE HAUTE    MOSUNNY   71  55  56 SW8       30.23R

$$

INZ030>032-037>040-046>048-054>057-064-065-051500-
CENTRAL INDIANA

CITY           SKY/WX    TMP DP  RH WIND       PRES   REMARKS
ANDERSON       SUNNY     70  52  52 S6        30.24F
COLUMBUS       SUNNY     68  57  68 SW7       30.25
GREENWOOD *+   PTSUNNY   72  54  53 SW5       30.25R
INDIANAPOLIS   PTSUNNY   71  56  58 SW13      30.23R
-EAGLE CREEK   PTSUNNY   69  54  58 CALM      30.23R
KOKOMO *+      PTSUNNY   64  63  94 S9        30.22S
MT COMFORT *+  PTSUNNY   72  46  40 SW8       30.24S
SHELBYVILLE    PTSUNNY   71  59  65 S7        30.24S

$$

INZ033-034-041-042-049-050-058-059-051500-
EAST CENTRAL INDIANA

CITY           SKY/WX    TMP DP  RH WIND       PRES   REMARKS
MUNCIE         PTSUNNY   68  59  73 S6        30.24S

$$

INZ060-061-067>069-081>083-085>088-051500-
SOUTHWEST INDIANA

CITY           SKY/WX    TMP DP  RH WIND       PRES   REMARKS
EVANSVILLE     SUNNY     73  55  53 SW10      30.25S
HUNTINGBURG *+ SUNNY     72  55  56 SW10      30.26S

$$

INZ062-063-066-070>080-084-089>092-051500-
SOUTH CENTRAL AND SOUTHEAST INDIANA

CITY           SKY/WX    TMP DP  RH WIND       PRES   REMARKS
BLOOMINGTON    MOSUNNY   74  54  49 SW12      30.24S
MADISON *+     SUNNY     72  54  53 CALM      30.29S
SEYMOUR +      SUNNY     73  55  53 SW8       30.26R

$$




USA.gov is the U.S. government's official web portal to all federal, state and local government web resources and services.